HK5VD-30 Weather Reports


time (UTC)temp
C
wind
direction
speed
KPH
gust
KPH
rain 1hr
cm
rain 24hr
cm
rain mn
cm
humidity
%
barometer
mb
20260503180302 27 290 6.4 0.0 0.00 0.00 0.00 94 1010.0
20260503173301 27 290 6.4 0.0 0.00 0.00 0.00 94 1012.0
20260503170259 26 0 3.2 0.0 0.00 0.00 0.00 94 1012.0
20260503150255 24 0 3.2 0.0 0.00 0.00 0.00 94 1015.0
20260503140253 23 0 3.2 0.0 0.00 0.00 0.00 94 1015.0
20260503130251 22 0 1.6 0.0 0.00 0.00 0.00 94 1015.0
20260503110247 21 150 3.2 0.0 0.00 0.00 0.00 94 1014.0
20260503100245 20 130 3.2 0.0 0.00 0.00 0.00 94 1013.0
20260503090243 21 0 1.6 0.0 0.00 0.00 0.00 94 1013.0
20260503080241 20 140 3.2 0.0 0.00 0.00 0.00 94 1014.0
20260503070239 21 160 4.8 0.0 0.00 0.00 0.00 10 1014.0
20260503060237 20 160 4.8 0.0 0.00 0.00 0.00 10 1014.0
20260503053236 22 130 3.2 0.0 0.00 0.00 0.00 10 1014.0
20260503050235 21 0 3.2 0.0 0.00 0.00 0.00 10 1015.0
20260503043234 21 0 3.2 0.0 0.00 0.00 0.00 10 1015.0
20260503040233 20 10 3.2 0.0 0.00 0.00 0.00 10 1015.0
20260503033232 22 30 4.8 0.0 0.00 0.00 0.00 94 1015.0
20260503030231 22 30 4.8 0.0 0.00 0.00 0.00 94 1015.0
20260503023230 21 30 4.8 0.0 0.00 0.00 0.00 94 1015.0
20260503020229 23 20 8.0 0.0 0.00 0.00 0.00 88 1014.0
20260503013228 22 20 8.0 0.0 0.00 0.00 0.00 88 1013.0
20260503010227 22 20 8.0 0.0 0.00 0.00 0.00 88 1013.0
20260503000226 21 20 9.7 0.0 0.00 0.00 0.00 88 1013.0
20260502233223 25 350 16.1 0.0 0.03 0.00 0.00 73 1012.0
20260502230222 26 320 20.9 0.0 0.00 0.00 0.00 61 1012.0
20260502223220 26 320 20.9 0.0 0.00 0.00 0.00 61 1012.0
20260502213218 27 320 19.3 0.0 0.00 0.00 0.00 61 1011.0
20260502210217 30 360 17.7 0.0 0.00 0.00 0.00 54 1010.0
20260502203216 30 360 17.7 0.0 0.00 0.00 0.00 54 1010.0
20260502200215 28 350 9.7 0.0 0.00 0.00 0.00 58 1010.0
20260502193214 28 350 9.7 0.0 0.00 0.00 0.00 58 1010.0
20260502190213 27 350 8.0 0.0 0.00 0.00 0.00 61 1011.0
20260502183212 27 350 8.0 0.0 0.00 0.00 0.00 83 1011.0